EST,Max TemperatureF,Mean TemperatureF,Min TemperatureF,Max Dew PointF,MeanDew PointF,Min DewpointF,Max Humidity, Mean Humidity, Min Humidity, Max Sea Level PressureIn, Mean Sea Level PressureIn, Min Sea Level PressureIn, Max VisibilityMiles, Mean VisibilityMiles, Min VisibilityMiles, Max Wind SpeedMPH, Mean Wind SpeedMPH, Max Gust SpeedMPH,PrecipitationIn, CloudCover, Events, WindDirDegrees
2014-2-1,52,48,44,50,47,42,96,92,83,30.19,30.16,30.11,10,5,1,9,4,,0.17,8,Rain,8
2014-2-2,64,56,48,56,49,46,97,91,67,30.20,30.14,30.07,10,5,0,8,3,,0.00,6,Fog,183
2014-2-3,75,66,57,65,62,56,100,89,64,30.12,30.04,30.00,10,5,1,15,7,26,0.00,7,,211
2014-2-4,61,56,51,58,50,47,93,85,77,30.25,30.15,30.07,10,8,2,9,6,17,0.00,8,,80
2014-2-5,78,64,50,65,53,34,97,84,46,30.09,29.99,29.88,10,4,0,17,5,23,0.09,5,Fog-Rain,236
2014-2-6,55,47,39,43,34,31,86,62,42,30.31,30.22,30.11,10,10,1,15,10,26,0.05,4,Rain,23
2014-2-7,57,48,39,42,37,34,86,71,44,30.35,30.28,30.23,10,10,5,10,7,,0.00,4,,58
2014-2-8,57,50,41,44,40,36,92,76,51,30.27,30.18,30.13,10,9,4,12,7,,0.12,4,Rain,36
2014-2-9,64,50,35,46,38,34,100,86,42,30.21,30.14,30.05,10,4,0,9,1,,0.00,4,,200
2014-2-10,68,55,42,50,43,38,86,70,42,30.14,30.09,30.04,10,10,10,9,3,,0.00,5,,215
2014-2-11,52,44,35,45,38,33,93,83,68,30.30,30.20,30.10,10,9,3,17,11,24,0.02,8,Rain,51
2014-2-12,36,34,32,34,32,29,93,90,85,30.27,30.07,29.74,10,5,2,20,14,28,0.82,8,Rain-Snow,38
2014-2-13,44,38,33,36,32,31,93,85,68,29.88,29.71,29.63,10,7,2,20,10,30,0.00,6,,307
2014-2-14,64,50,35,42,33,27,73,56,27,29.98,29.90,29.80,10,10,10,16,10,21,0.00,2,,246
2014-2-15,57,49,37,47,36,24,89,60,28,30.12,29.87,29.68,10,10,7,23,12,31,0.03,3,Rain,279
2014-2-16,64,48,32,40,30,22,79,56,24,30.19,30.13,30.09,10,10,10,12,6,21,0.00,0,,250
2014-2-17,60,48,37,47,40,33,93,74,48,30.28,30.22,30.17,10,9,6,14,4,,0.00,1,,99
2014-2-18,73,60,46,54,50,44,90,73,40,30.25,30.18,30.14,10,9,5,9,4,,0.00,5,,219
2014-2-19,82,68,55,56,49,31,90,61,16,30.14,30.10,30.03,10,10,7,20,8,29,0.00,4,,227
2014-2-20,78,68,57,63,60,55,97,85,54,30.19,30.11,30.06,10,8,0,15,5,30,0.00,3,Fog,182
2014-2-21,71,66,55,65,60,44,97,85,55,30.08,30.00,29.94,10,8,0,25,10,37,0.23,6,Rain-Thunderstorm,236
2014-2-22,66,57,48,47,41,32,89,61,27,30.17,30.12,30.05,10,10,10,16,4,,0.00,1,,40
2014-2-23,71,58,45,56,49,42,93,81,44,30.12,30.06,29.96,10,7,0,12,2,18,0.00,1,Fog,224
2014-2-24,72,62,52,58,52,42,93,76,35,30.12,30.03,29.95,10,10,7,16,7,22,0.00,3,,283
2014-2-25,77,64,51,54,47,42,90,60,29,30.07,29.99,29.91,10,10,9,15,4,24,0.00,2,Fog,279
2014-2-26,55,50,45,51,47,42,93,86,72,29.91,29.84,29.76,10,6,2,16,4,,0.46,7,Rain,338
2014-2-27,59,50,41,42,35,27,93,67,29,29.99,29.89,29.84,10,9,5,10,5,,0.00,3,,314
2014-2-28,59,46,33,45,37,27,89,65,43,30.20,30.13,29.99,10,10,10,12,4,,0.00,2,,80